Onalaska, WI

2:26 AM CST on December 05, 2016 (GMT -0600)
La Crosse Municipal

Weather History for KLSE - April, 2014

Change the Weather History Date:

Sunday, April 27, 2014

  Actual Average Record
Temperature  
Mean Temperature 45 °F 54 °F  
Max Temperature 48 °F 65 °F 88 °F (1977)
Min Temperature 42 °F 43 °F 28 °F (1982)
Degree Days  
Heating Degree Days 20 12  
Month to date heating degree days 528 466  
Since 1 July heating degree days 7873 6919  
Cooling Degree Days 0 0  
Month to date cooling degree days 0 0  
Year to date cooling degree days 0 0  
Moisture  
Dew Point 37 °F    
Average Humidity 72    
Maximum Humidity 82    
Minimum Humidity 62    
Precipitation  
Precipitation 0.29 in 0.12 in 3.91 in (1975)
Month to date precipitation 5.85 2.97  
Year to date precipitation 9.52 7.18  
Snow  
Snow 0.00 in 0.00 in 2.30 in (2002)
Month to date snowfall 2.3 1.6  
Since 1 July snowfall 48.9 43.2  
Snow Depth 0.00 in    
Sea Level Pressure  
Sea Level Pressure 29.85 in    
Wind  
Wind Speed 13 mph (ESE)    
Max Wind Speed 39 mph    
Max Gust Speed 50 mph    
Visibility 9 miles    
Events Rain    
T = Trace of Precipitation, MM = Missing Value Source: NWS Daily Summary

Daily Weather History Graph

Daily Weather History Graph

Search for Another Location

Airport or City:

Trip Planner

Search our weather history database for the weather conditions in past years. The results will help you decide how hot, cold, wet, or windy it might be!

Date:

Astronomy

Apr. 27, 2014 Rise Set
Actual Time 6:02 AM CDT 8:03 PM CDT
Civil Twilight 5:31 AM CDT 8:34 PM CDT
Nautical Twilight 4:53 AM CDT 9:12 PM CDT
Astronomical Twilight 4:11 AM CDT 9:55 PM CDT
Moon 5:07 AM CDT (4/27) 6:34 PM CDT (4/27)
Length of Visible Light 15h 02m
Length of Day
14h 00m
Waning Crescent, 3% of the Moon is Illuminated
Apr 27
Waning Crescent
Apr 29
New
May 6
First Quarter
May 14
Full
May 21
Last Quarter

Hourly Weather History & Observations

Time (CDT) Temp. Windchill Dew Point Humidity Pressure Visibility Wind Dir Wind Speed Gust Speed Precip Events Conditions
12:53 AM 44.1 °F 38.6 °F 33.1 °F 65% 30.01 in 10.0 mi ESE 10.4 mph - 0.02 in Rain Light Rain
1:53 AM 44.1 °F 38.1 °F 30.9 °F 60% 30.01 in 10.0 mi SE 11.5 mph - 0.00 in   Overcast
2:53 AM 43.0 °F 36.0 °F 30.0 °F 60% 29.98 in 10.0 mi SE 13.8 mph - 0.00 in   Overcast
4:53 AM 43.0 °F 36.0 °F 33.1 °F 68% 29.95 in 10.0 mi ESE 13.8 mph - 0.00 in   Overcast
5:53 AM 43.0 °F 36.4 °F 33.1 °F 68% 29.93 in 10.0 mi ESE 12.7 mph 23.0 mph N/A   Overcast
7:53 AM 44.1 °F 38.6 °F 34.0 °F 68% 29.89 in 10.0 mi ESE 10.4 mph 24.2 mph N/A   Mostly Cloudy
8:00 AM 44.1 °F 37.4 °F 35.1 °F 71% 29.88 in 10.0 mi ESE 13.8 mph 19.6 mph N/A   Mostly Cloudy
8:53 AM 45.0 °F 37.9 °F 36.0 °F 71% 29.88 in 10.0 mi ESE 16.1 mph 26.5 mph N/A   Overcast
9:53 AM 45.0 °F 38.9 °F 37.0 °F 74% 29.88 in 10.0 mi ESE 12.7 mph 24.2 mph N/A   Overcast
10:42 AM 45.0 °F 37.6 °F 37.9 °F 76% 29.85 in 6.0 mi ESE 17.3 mph 27.6 mph 0.01 in Rain Light Rain
11:01 AM 45.0 °F 38.9 °F 39.0 °F 80% 29.85 in 10.0 mi East 12.7 mph 23.0 mph 0.00 in Rain Light Rain
11:53 AM 44.1 °F 39.5 °F 37.9 °F 79% 29.92 in 5.0 mi East 8.1 mph - 0.07 in Rain Light Rain
12:08 PM 43.0 °F 36.8 °F 39.0 °F 86% 29.87 in 2.5 mi ENE 11.5 mph 17.3 mph 0.06 in Rain Rain
12:17 PM 43.0 °F 36.8 °F 39.0 °F 86% 29.85 in 4.0 mi ENE 11.5 mph 23.0 mph 0.09 in Rain Light Rain
12:27 PM 43.0 °F 36.4 °F 39.0 °F 86% 29.86 in 10.0 mi East 12.7 mph 19.6 mph 0.09 in Rain Light Rain
12:53 PM 43.0 °F 40.3 °F 37.9 °F 82% 29.89 in 10.0 mi Variable 4.6 mph 26.5 mph 0.09 in   Overcast
1:23 PM 43.0 °F 36.0 °F 37.0 °F 80% 29.84 in 10.0 mi East 13.8 mph 24.2 mph 0.00 in Rain Light Rain
1:53 PM 43.0 °F 35.7 °F 37.0 °F 80% 29.84 in 10.0 mi East 15.0 mph 25.3 mph 0.00 in   Overcast
2:53 PM 43.0 °F 35.1 °F 36.0 °F 76% 29.81 in 10.0 mi East 17.3 mph 27.6 mph 0.02 in   Overcast
3:53 PM 46.0 °F 39.3 °F 37.0 °F 71% 29.78 in 10.0 mi East 16.1 mph 25.3 mph 0.00 in   Overcast
4:53 PM 46.0 °F 41.4 °F 37.9 °F 73% 29.78 in 9.0 mi East 9.2 mph - 0.07 in Rain Light Rain
5:53 PM 48.0 °F - 36.0 °F 63% 29.81 in 10.0 mi ESE 19.6 mph 24.2 mph 0.00 in   Overcast
6:53 PM 46.9 °F - 37.0 °F 68% 29.85 in 10.0 mi ESE 11.5 mph 21.9 mph N/A   Scattered Clouds
7:53 PM 48.0 °F - 36.0 °F 63% 29.81 in 10.0 mi ESE 16.1 mph 28.8 mph 0.00 in Rain Light Rain
8:53 PM 46.9 °F - 39.0 °F 74% 29.74 in 10.0 mi ESE 20.7 mph 44.9 mph 0.02 in Rain Light Rain
9:53 PM 46.9 °F - 39.0 °F 74% 29.73 in 10.0 mi ESE 11.5 mph 23.0 mph 0.01 in   Scattered Clouds
10:53 PM 48.0 °F - 39.0 °F 71% 29.77 in 10.0 mi ESE 17.3 mph 23.0 mph N/A   Mostly Cloudy
11:03 PM 48.0 °F - 39.0 °F 71% 29.75 in 10.0 mi ESE 12.7 mph - N/A   Overcast
11:39 PM 46.9 °F - 39.0 °F 74% 29.76 in 10.0 mi ESE 17.3 mph 23.0 mph 0.00 in Rain Light Rain
11:48 PM 46.4 °F 39.2 °F 37.4 °F 71% 29.78 in 10.0 mi SE 18.4 mph 26.5 mph 0.00 in   Overcast